Content
SEND FEEDBACK

Daily
Averages
Monthly
Summary
Egypt

PORT SAID, EGYPT


Home > Middle East > Egypt
Elevation: 20 feet     Latitude: 31 17N     Longitude: 032 14E

WEATHER
 
SELECT A DAY
Number of Records: 139,203;   Date Range: 7/1/96 - 7/28/14
 
SHARE

PRINT THIS DATA

[ ← Previous Day ]
WEATHER ALMANAC - JANUARY 3, 2013
[ Next Day → ]
[ °C ]   °F
Weather ElementAverageHighLow
Temperature60.7 °F69.8 °F (3:00 pm)53.6 °F (7:00 am)
Dewpoint52.2 °F57.2 °F (11:00 pm)44.6 °F (3:00 pm)
Humidity74.9 %88 % (1:00 am)40 % (3:00 pm)
Barometer30.25 in30.30 in (9:00 am)30.21 in (3:00 pm)
Wind Speed4.8 mph8.1 mph (9:00 am)
Weather ElementAverage
Visibility2.9 mi
Wind DirectionESE (120 °)

Weather ElementTotal
Precipitation---
Heating Degree Days3.3 (Base 65)
Growing Degree Days11.7 (Base 50)
Averaged from 22 records on January 3, 2013
WEATHER CONDITIONS BREAKOUT
WIND DIRECTION BREAKOUT
WEATHER BY HOUR - JANUARY 3, 2013
[ °C ]   °F
Local TimeTemperatureDewpointHumidityBarometerVisibilityWind DirectionWind SpeedGust SpeedPrecipitationEventsConditions
1:00 AM57.2 °F53.6 °F88 %30.27 inSSW (200°)5.8 mphClear
2:00 AM57.2 °F51.8 °F82 %30.27 inSouth (180°)3.5 mphClear
3:00 AM55.4 °F51.8 °F88 %30.27 inSouth (180°)4.6 mphClear
4:00 AM55.4 °F51.8 °F88 %30.27 inSouth (170°)5.8 mphClear
5:00 AM55.4 °F51.8 °F88 %30.27 inSouth (170°)4.6 mphClear
6:00 AM55.4 °F51.8 °F88 %30.27 in3.7 miSouth (180°)3.5 mph
7:00 AM53.6 °F50.0 °F88 %30.27 in2.5 miSouth (170°)3.5 mphMist
8:00 AM53.6 °F50.0 °F88 %30.27 in2.5 miSouth (180°)4.6 mphMist
9:00 AM57.2 °F48.2 °F72 %30.30 inSouth (170°)8.1 mphClear
10:00 AM60.8 °F50.0 °F68 %30.30 inSouth (190°)5.8 mphClear
11:00 AM64.4 °F53.6 °F68 %30.30 inWSW (240°)3.5 mphClear
12:00 PM68.0 °F51.8 °F56 %30.27 inWSW (250°)3.5 mphClear
2:00 PM66.2 °F53.6 °F64 %30.24 inNorth (10°)4.6 mphClear
3:00 PM69.8 °F44.6 °F40 %30.21 inNNE (20°)6.9 mphClear
4:00 PM66.2 °F51.8 °F60 %30.24 inNE (40°)3.5 mphClear
5:00 PM64.4 °F51.8 °F64 %30.24 inNE (40°)4.6 mphClear
6:00 PM62.6 °F53.6 °F72 %30.24 inNE (40°)3.5 mphClear
7:00 PM62.6 °F53.6 °F72 %30.24 inNE (40°)3.5 mphClear
8:00 PM62.6 °F55.4 °F77 %30.21 inNE (50°)5.8 mphClear
9:00 PM62.6 °F55.4 °F77 %30.21 inNE (40°)6.9 mphClear
10:00 PM62.6 °F55.4 °F77 %30.21 inNE (40°)5.8 mphClear
11:00 PM62.6 °F57.2 °F82 %30.21 inNE (40°)3.5 mphClear
Hourly data recorded from HEPS, located miles away from Port Said, Egypt







STORIES FROM OUR PARTNERS